Regional Weather Roundup
Issued by NWS

Home | Current Version | Previous Version | Text Only | Print | Product List | Glossary On
Versions: 1 2 3 4 5 6 7 8 9 10 11 12 13 14 15 16 17 18 19 20 21 22 23 24 25 26 27 28 29 30 31 32 33 34 35 36 37 38 39 40 41 42 43 44 45 46 47 48 49 50
000
ASUS43 KOAX 040502
RWRNE

WEATHER ROUNDUP FOR NEBRASKA
NATIONAL WEATHER SERVICE OMAHA NE
1200 AM CDT TUE AUG 04 2015

NOTES: SATELLITE DATA IS BEING USED TO AUGMENT CLOUD COVER ABOVE
       12000 FEET.
       "FAIR" INDICATES FEW OR NO CLOUDS BELOW 12,000 FEET WITH NO
       SIGNIFICANT WEATHER AND/OR OBSTRUCTIONS TO VISIBILITY.

  * THESE STATIONS DO NOT REPORT WEATHER SUCH AS RAIN...SNOW OR FOG.

NEZ001>004-019>022-054>056-040600-
NEBRASKA PANHANDLE

CITY           SKY/WX    TMP DP  RH WIND       PRES   REMARKS
SCOTTSBLUFF    CLOUDY    76  51  41 S7        29.99S
ALLIANCE       MOCLDY    73  66  78 S15       29.99R
CHADRON        MOCLDY    74  61  63 CALM      29.92R
KIMBALL        CLOUDY    70  48  45 SW9       30.05S
SIDNEY         MOCLDY    71  50  47 SW8       30.04S
$$

NEZ057>060-069>072-079>082-040600-
SOUTHWEST NEBRASKA

CITY           SKY/WX    TMP DP  RH WIND       PRES   REMARKS
NORTH PLATTE   MOCLDY    71  68  90 SE14      29.98R
IMPERIAL       PTCLDY    68  57  68 N6        29.99R
LEXINGTON      CLOUDY    72  67  85 E7        29.98R
MCCOOK         CLOUDY    74  71  91 E7        29.95S
$$

NEZ005>010-023>029-035>040-094-040600-
NORTH CENTRAL NEBRASKA

CITY           SKY/WX    TMP DP  RH WIND       PRES   REMARKS
AINSWORTH      PTCLDY    69  62  78 SE10      29.99S
BROKEN BOW     CLOUDY    71  63  75 SE9       29.99S
ORD            PTCLDY    69  63  81 E6        29.98R
$$

NEZ041-046>049-061>064-073>077-083>087-040600-
SOUTH CENTRAL NEBRASKA

CITY           SKY/WX    TMP DP  RH WIND       PRES   REMARKS
GRAND ISLAND   MOCLDY    70  63  78 E8        29.98S
AURORA         MOCLDY    68  66  94 E7        29.98S
HASTINGS       PTCLDY    71  67  87 E8        29.97S
HEBRON         PTCLDY    72  67  83 E7        29.95S
HOLDREGE       MOCLDY    70  66  87 E8        29.97R
KEARNEY *      PTCLDY    70  64  83 E8        29.97S
YORK           MOCLDY    68  66  94 E7        29.98S
$$

NEZ011>018-030>034-042>045-040600-
NORTHEAST NEBRASKA

CITY           SKY/WX    TMP DP  RH WIND       PRES   REMARKS
NORFOLK        MOCLDY    67  64  90 E3        29.98F
ALBION         MOCLDY    68  62  81 E3        29.99S
BLAIR          CLOUDY    71  63  76 E3        29.98S
COLUMBUS *     MOCLDY    66  61  82 CALM      29.99S
FREMONT        CLOUDY    73  64  75 E3        29.99S
TEKAMAH        CLOUDY    72  69  90 CALM      29.98R
$$

NEZ050>053-065>068-078-088>093-040600-
SOUTHEAST NEBRASKA

CITY           SKY/WX    TMP DP  RH WIND       PRES   REMARKS
LINCOLN        PTCLDY    72  63  73 NE6       29.97F
OMAHA EPPLEY   CLOUDY    74  64  71 E6        29.97S
BEATRICE       MOCLDY    72  68  88 E6        29.95F
FALLS CITY     CLEAR     71  69  93 E3        29.94S
NEBRASKA CITY  MOCLDY    70  63  80 E5        29.97S
$$

NEZ044-045-051>053-067-040600-
OMAHA AREA

CITY           SKY/WX    TMP DP  RH WIND       PRES   REMARKS
OMAHA EPPLEY   CLOUDY    74  64  71 E6        29.97S
BLAIR          CLOUDY    71  63  76 E3        29.98S
FREMONT        CLOUDY    73  64  75 E3        29.99S
OFFUTT AFB     PTCLDY    68  65  90 NE5       29.96S
WAHOO          FAIR      68  65  89 E5        29.97F
$$


USA.gov is the U.S. government's official web portal to all federal, state and local government web resources and services.